User: anonymous   Login
Location: Three Oaks Observatory
(31.1535°N, 83.5955°W)
Time: 05:13:08
(UTC-04:00)
Language:

LO-87 - Orbit

View from above orbital plane
View from above orbital plane
View from above satellite
View from above satellite

Ground track
Ground track

The orbit data is extracted from the following two-line orbital elements,

1 41557U 16033B   19292.16690788  .00001096  00000-0  43505-4 0  9990
2 41557  97.4145  18.9486 0012700 219.7865 140.2444 15.27449266188785
Epoch (UTC): 19 October 2019 04:00:20
Eccentricity: 0.0012700
inclination: 97.4145°
perigee height: 475 km
apogee height: 492 km
right ascension of ascending node: 18.9486°
argument of perigee: 219.7865°
revolutions per day: 15.27449266
mean anomaly at epoch: 140.2444°
orbit number at epoch: 18878

The dashed part of the orbit path shows where the satellite is in the earth's shadow,  

DLR